[[{"header":{"parameterUnit":"m.s-1","parameterCategory":2,"la1":30.2991,"la2":30.254,"lo1":-89.0895,"lo2":-89.0444,"dy":0.0017,"dx":0.0017,"nx":28,"ny":28,"refTime":"2024-06-22T03:00:00:Z","depth":"0","parameterNumber":2,"parameterNumberName":"U-component_of_CURRENTS"},"data":[0,0,0,0,0,0,0,0,0,0,0,0,0,0,0,0,0,0,0,0,0,0,0,0,0,0,0,0,0,0,0,0,0,0,0,0,0,0,0,0,0,0,0,0,0,0,0,0,0,0,0,0,0,0,0,0,0,0,0.2444,0.2445,0,0.2549,0.255,0.2551,0.2598,0.2598,0.2599,0.2599,0.264,0.2641,0.2642,0,0,0,0,0,0,0,0,0,0,0,0,0,0.2247,0.225,0.2444,0.2445,0.2447,0.2549,0.255,0.2551,0.2598,0.2598,0.2599,0.2599,0.264,0.2641,0.2642,0,0,0,0,0,0,0,0,0,0,0,0,0,0.2336,0.2251,0.2443,0.2486,0.2491,0.2549,0.255,0.2551,0.2598,0.2598,0.2599,0.2599,0.264,0.2641,0.2642,0.2643,0,0,0.2646,0.2647,0,0,0,0,0,0,0,0,0.2331,0.2343,0.2478,0.2483,0.2489,0.2564,0.2496,0.258,0.2598,0.2553,0.2599,0.2599,0.2611,0.2615,0.2629,0.2645,0.2646,0.2646,0.2647,0.2648,0.2648,0,0,0,0,0,0,0,0.2325,0.2339,0.2481,0.248,0.2487,0.2487,0.25,0.2512,0.2574,0.2557,0.2562,0.258,0.2613,0.2628,0.263,0.2647,0.2646,0.2647,0.2648,0.2649,0.272,0.2721,0,0,0,0,0,0,0.2323,0.2333,0.2478,0.2485,0.2414,0.2491,0.2505,0.2537,0.2576,0.2584,0.2579,0.2582,0.2625,0.2629,0.2632,0.269,0.2648,0.2649,0.2649,0.2719,0.2721,0.2722,0,0,0,0,0,0,0.2318,0.2335,0.2474,0.2413,0.2432,0.2495,0.2529,0.2539,0.2559,0.2594,0.26,0.2591,0.2626,0.263,0.266,0.269,0.2649,0.265,0.2718,0.272,0.2721,0.2772,0,0,0,0,0,0,0.2312,0.2333,0.235,0.2414,0.2435,0.2526,0.2529,0.254,0.2571,0.2575,0.2606,0.261,0.2626,0.2658,0.2662,0.2691,0.2652,0.2716,0.2719,0.2721,0.2768,0.2775,0.278,0,0,0,0,0,0.2305,0.2333,0.2351,0.2368,0.2459,0.2528,0.2539,0.2581,0.2571,0.2595,0.2612,0.2609,0.2674,0.266,0.2664,0.2694,0.2715,0.2718,0.272,0.2766,0.2774,0.278,0,0,0,0,0,0,0.2269,0.2343,0.2363,0.2416,0.2475,0.2538,0.2563,0.2578,0.2609,0.261,0.2622,0.2629,0.2666,0.2669,0.2653,0.2721,0.2695,0.2698,0.2728,0.2735,0.2741,0.2769,0.2653,0,0,0,0,0,0.2266,0.2301,0.2377,0.2421,0.2449,0.2499,0.2527,0.2561,0.2599,0.2614,0.2628,0.2648,0.2678,0.2697,0.2717,0.2751,0.2795,0.2773,0.2779,0.2784,0.2809,0.2909,0.2927,0.273,0.273,0.273,0,0,0.2271,0.2311,0.2336,0.2414,0.2457,0.2508,0.2517,0.2574,0.2614,0.2611,0.2651,0.2664,0.2689,0.2736,0.2753,0.2745,0.2861,0.2787,0.2791,0.2815,0.2914,0.2933,0.2951,0.2732,0.2731,0.2731,0,0,0.2287,0.2328,0.2361,0.2407,0.2478,0.2517,0.2531,0.2594,0.2623,0.2664,0.2676,0.2716,0.2737,0.2787,0.2807,0.2855,0.2882,0.2846,0.2909,0.3005,0.3023,0.3039,0.3114,0.3137,0.2857,0.2857,0.2857,0,0.229,0.2342,0.2383,0.2424,0.2468,0.2517,0.2569,0.2608,0.267,0.2707,0.2683,0.2762,0.2773,0.2864,0.2883,0.2873,0.2922,0.288,0.3016,0.3033,0.3049,0.3122,0.3146,0.286,0.2859,0.2859,0.2859,0,0.2328,0.2374,0.2399,0.2466,0.2515,0.2572,0.2638,0.268,0.2701,0.2748,0.2825,0.285,0.2912,0.2912,0.2911,0.303,0.3026,0.3007,0.3003,0.3072,0.3143,0.3168,0.2864,0.2863,0.2862,0.2861,0,0,0.2337,0.2413,0.2422,0.2459,0.2546,0.2594,0.2664,0.276,0.2826,0.2863,0.2952,0.2997,0.3023,0.3049,0.306,0.3135,0.3276,0.3122,0.3125,0.3204,0.3487,0.3463,0.3487,0.3284,0.3289,0.3293,0.349,0,0.2363,0.2431,0.2468,0.2548,0.2598,0.2663,0.273,0.2818,0.2888,0.2982,0.3035,0.3116,0.3074,0.3116,0.3187,0.3261,0.3344,0.3224,0.3401,0.3407,0.3385,0.3517,0.3477,0.3648,0.3514,0.3518,0.3521,0,0.2388,0.2434,0.2503,0.2601,0.2632,0.268,0.2814,0.2889,0.3032,0.3091,0.3188,0.3234,0.3359,0.3299,0.3484,0.3411,0.3462,0.3501,0.3509,0.3493,0.343,0.3558,0.3698,0.3648,0.3559,0.3556,0.3553,0,0.2365,0.2461,0.2511,0.2543,0.2658,0.2703,0.2778,0.2919,0.3006,0.3179,0.3265,0.3398,0.3489,0.3576,0.3651,0.3591,0.3844,0.3772,0.3799,0.3797,0.3803,0.3793,0.3927,0.3916,0.3915,0.3915,0.3914,0,0.2374,0.2417,0.2499,0.2527,0.261,0.2699,0.2813,0.2914,0.3075,0.3195,0.3323,0.344,0.3567,0.3705,0.3737,0.3867,0.3927,0.3859,0.3871,0.3815,0.3804,0.3789,0.3718,0.3922,0.3921,0.3919,0.3918,0,0.2332,0.2386,0.2447,0.2556,0.2593,0.2652,0.2808,0.2897,0.3069,0.3233,0.3295,0.3524,0.3718,0.3832,0.4007,0.3998,0.4017,0.4121,0.4036,0.4034,0.3965,0.3896,0.3847,0.3724,0.4195,0.4196,0.4197,0,0.2313,0.2336,0.2438,0.2473,0.2515,0.2617,0.2689,0.2865,0.2964,0.3266,0.3335,0.3601,0.3765,0.404,0.412,0.4242,0.4076,0.4228,0.4098,0.4009,0.3942,0.3709,0.359,0.4128,0.4128,0.4129,0.4129,0,0.2275,0.23,0.2347,0.2418,0.248,0.2562,0.2678,0.2756,0.2974,0.3145,0.3382,0.3554,0.3869,0.4021,0.4201,0.424,0.4054,0.423,0.419,0.3962,0.3671,0.3542,0.3927,0.413,0.413,0.413,0.413,0.413,0.2228,0.2247,0.23,0.2366,0.2429,0.2491,0.2538,0.2682,0.2845,0.3083,0.3298,0.3543,0.3873,0.4146,0.4154,0.4207,0.4058,0.414,0.4088,0.3876,0.3684,0.4056,0.4223,0.4224,0.4224,0.4224,0.4225,0,0.2173,0.2204,0.2252,0.2316,0.2343,0.2407,0.2514,0.2555,0.2704,0.297,0.3185,0.3574,0.3795,0.4002,0.4216,0.4126,0.3878,0.4027,0.373,0.3633,0.4071,0.3998,0.4061,0.4061,0.4061,0.4061,0.4061,0.4061,0.2139,0.216,0.2193,0.2215,0.2253,0.2261,0.23,0.2388,0.2549,0.2823,0.3069,0.3299,0.3762,0.4114,0.4169,0.4069,0.3736,0.3603,0.3488,0.3876,0.3882,0.3887,0.3807,0.3829,0.3828,0.2949,0.2943,0.2938]},{"header":{"parameterUnit":"m.s-1","parameterCategory":2,"la1":30.2991,"la2":30.254,"lo1":-89.0895,"lo2":-89.0444,"dy":0.0017,"dx":0.0017,"nx":28,"ny":28,"refTime":"2024-06-22T03:00:00:Z","depth":"0","parameterNumber":3,"parameterNumberName":"V-component_of_CURRENTS"},"data":[0,0,0,0,0,0,0,0,0,0,0,0,0,0,0,0,0,0,0,0,0,0,0,0,0,0,0,0,0,0,0,0,0,0,0,0,0,0,0,0,0,0,0,0,0,0,0,0,0,0,0,0,0,0,0,0,0,0,-0.0163,-0.0164,0,-0.022,-0.022,-0.0221,-0.0301,-0.0303,-0.0304,-0.0306,-0.0365,-0.0365,-0.0365,0,0,0,0,0,0,0,0,0,0,0,0,0,-0.0139,-0.0139,-0.0163,-0.0164,-0.0164,-0.0219,-0.022,-0.0221,-0.0301,-0.0303,-0.0305,-0.0306,-0.0365,-0.0365,-0.0365,0,0,0,0,0,0,0,0,0,0,0,0,0,-0.0167,-0.0139,-0.0163,-0.0212,-0.0217,-0.0219,-0.022,-0.0221,-0.0301,-0.0303,-0.0305,-0.0307,-0.0365,-0.0365,-0.0365,-0.0323,0,0,-0.0366,-0.0366,0,0,0,0,0,0,0,0,-0.0166,-0.0168,-0.0204,-0.0208,-0.0214,-0.0256,-0.0234,-0.0256,-0.03,-0.0268,-0.0306,-0.0308,-0.0327,-0.0331,-0.0336,-0.0326,-0.0329,-0.0366,-0.0366,-0.0367,-0.0367,0,0,0,0,0,0,0,-0.0164,-0.0166,-0.0184,-0.0204,-0.0211,-0.0236,-0.0242,-0.0238,-0.0284,-0.0271,-0.0277,-0.0284,-0.0331,-0.0335,-0.0338,-0.033,-0.0366,-0.0366,-0.0367,-0.0367,-0.0326,-0.0325,0,0,0,0,0,0,-0.0155,-0.0164,-0.0183,-0.0186,-0.0196,-0.0235,-0.0242,-0.024,-0.0284,-0.0293,-0.0282,-0.0287,-0.0333,-0.0337,-0.034,-0.0304,-0.0367,-0.0367,-0.0367,-0.0327,-0.0326,-0.0324,0,0,0,0,0,0,-0.0154,-0.0155,-0.018,-0.0178,-0.0183,-0.0233,-0.023,-0.024,-0.025,-0.0293,-0.0303,-0.0284,-0.0335,-0.034,-0.0337,-0.0306,-0.0367,-0.0367,-0.0329,-0.0327,-0.0325,-0.0224,0,0,0,0,0,0,-0.0153,-0.0154,-0.0143,-0.0177,-0.0183,-0.0164,-0.0228,-0.0239,-0.0251,-0.0259,-0.0297,-0.0305,-0.0337,-0.0336,-0.0337,-0.0308,-0.0367,-0.033,-0.0328,-0.0325,-0.0229,-0.0219,-0.021,0,0,0,0,0,-0.0151,-0.0116,-0.0142,-0.0144,-0.0168,-0.0162,-0.0166,-0.021,-0.0249,-0.0232,-0.0271,-0.0304,-0.0323,-0.0335,-0.0337,-0.0307,-0.0331,-0.0328,-0.0326,-0.0233,-0.0221,-0.021,0,0,0,0,0,0,-0.0083,-0.0122,-0.0151,-0.0126,-0.014,-0.0176,-0.0165,-0.0199,-0.0216,-0.0226,-0.0281,-0.0289,-0.028,-0.0302,-0.0315,-0.029,-0.0334,-0.0331,-0.0263,-0.0252,-0.0242,-0.0228,-0.0368,0,0,0,0,0,-0.0066,-0.0061,-0.0095,-0.0072,-0.0079,-0.0123,-0.0127,-0.0151,-0.0176,-0.0187,-0.0221,-0.0251,-0.0265,-0.0267,-0.0282,-0.0254,-0.0298,-0.0239,-0.023,-0.0222,-0.0212,-0.0258,-0.0252,-0.0315,-0.0315,-0.0315,0,0,-0.0032,-0.0053,-0.0049,-0.006,-0.008,-0.006,-0.013,-0.012,-0.0105,-0.0186,-0.0176,-0.0217,-0.0252,-0.0235,-0.0232,-0.025,-0.0225,-0.0218,-0.0211,-0.0205,-0.0254,-0.0248,-0.0243,-0.0313,-0.0313,-0.0313,0,0,0.0043,0.0018,0.0044,0.004,0.0021,-0.0001,0.0005,-0.0027,-0.0045,-0.0036,-0.0099,-0.0123,-0.0135,-0.0161,-0.0174,-0.0117,-0.0179,-0.012,-0.0053,-0.0097,-0.0093,-0.0089,-0.0131,-0.0132,-0.011,-0.011,-0.011,0,0.0084,0.0108,0.0059,0.0087,0.0093,0.003,0.0071,0.0057,0.0031,0.0023,-0.0018,-0.0066,-0.01,-0.0091,-0.0079,-0.0094,-0.0133,-0.0092,-0.0085,-0.0083,-0.0081,-0.0125,-0.0127,-0.0104,-0.0105,-0.0106,-0.0106,0,0.0174,0.0193,0.0215,0.0217,0.0224,0.0255,0.0223,0.0222,0.018,0.015,0.0135,0.0075,0.0043,0.0029,-0.0007,-0.0002,-0.0037,-0.0074,-0.0114,-0.0069,-0.0118,-0.0122,-0.0097,-0.0099,-0.01,-0.0102,0,0,0.0259,0.0273,0.0277,0.0299,0.0294,0.0313,0.0337,0.0337,0.0348,0.0298,0.0303,0.0254,0.0195,0.0175,0.0118,0.0079,0.0055,0.0018,0.0013,-0.0021,-0.0042,-0.0062,-0.0069,0.0016,0.0016,0.0015,-0.008,0,0.0339,0.0414,0.0398,0.0473,0.0509,0.0468,0.0495,0.0485,0.0454,0.0445,0.0362,0.0346,0.026,0.0243,0.0191,0.0094,0.0047,0.0084,-0.0082,-0.0086,-0.0109,-0.0074,-0.0047,-0.0129,-0.0085,-0.0086,-0.0086,0,0.0424,0.0461,0.0545,0.0587,0.0598,0.0631,0.0649,0.0672,0.0638,0.0612,0.0564,0.0489,0.0432,0.0344,0.0195,0.0222,0.0102,0.0012,0.0005,-0.005,-0.0114,-0.0168,-0.014,-0.0363,-0.0094,-0.0093,-0.0093,0,0.0493,0.0561,0.0628,0.0647,0.0685,0.071,0.0728,0.0717,0.0748,0.0716,0.0724,0.062,0.0585,0.0423,0.0237,0.0213,0.0064,0.0004,-0.0131,-0.0135,-0.0163,-0.0167,-0.0368,-0.0112,-0.0112,-0.0112,-0.0112,0,0.0576,0.0633,0.0664,0.0705,0.0791,0.0786,0.0862,0.0861,0.0873,0.0931,0.0816,0.0832,0.0602,0.0484,0.0287,0.0082,0.0098,-0.011,-0.0156,-0.0126,-0.0126,-0.0363,-0.0472,-0.0116,-0.0115,-0.0114,-0.0113,0,0.064,0.066,0.0747,0.0801,0.0827,0.0887,0.0964,0.1011,0.1015,0.1087,0.1085,0.0995,0.0841,0.06,0.0349,0.0169,-0.0167,-0.0128,-0.0073,-0.011,-0.0451,-0.0553,-0.0791,-0.0901,-0.0296,-0.0297,-0.0297,0,0.0679,0.0727,0.0819,0.0875,0.0904,0.0989,0.1046,0.1079,0.1143,0.1197,0.124,0.1124,0.107,0.07,0.0342,-0.0,-0.0212,-0.0197,-0.0245,-0.0458,-0.0607,-0.0692,-0.0773,-0.0247,-0.0247,-0.0248,-0.0248,0,0.0756,0.0779,0.0846,0.0962,0.1038,0.1141,0.1231,0.1307,0.1361,0.1435,0.1507,0.1476,0.1125,0.0797,0.0328,0.0086,-0.0343,-0.0214,-0.0452,-0.0592,-0.0681,-0.081,-0.0202,-0.025,-0.025,-0.025,-0.025,-0.025,0.0805,0.0866,0.0945,0.1058,0.1152,0.1278,0.1385,0.1488,0.1626,0.177,0.1716,0.1738,0.1253,0.0613,0.0235,-0.0401,-0.0418,-0.0586,-0.0694,-0.0764,-0.0865,-0.0256,-0.0345,-0.0345,-0.0346,-0.0346,-0.0346,0,0.087,0.0933,0.1038,0.1172,0.1282,0.1325,0.1498,0.162,0.1806,0.194,0.2017,0.1817,0.1204,0.058,-0.0283,-0.077,-0.0956,-0.1033,-0.1161,-0.1225,-0.0699,-0.0692,-0.0837,-0.0837,-0.0837,-0.0836,-0.0836,-0.0836,0.0909,0.101,0.1064,0.1255,0.1353,0.1529,0.1644,0.1837,0.1983,0.2183,0.2234,0.2209,0.1757,0.0154,-0.0967,-0.1234,-0.1567,-0.1639,-0.1835,-0.1488,-0.1455,-0.1423,-0.1446,-0.1746,-0.1747,-0.2305,-0.2311,-0.2315]}],[{"header":{"parameterUnit":"m.s-1","parameterCategory":2,"la1":30.2991,"la2":30.254,"lo1":-89.0895,"lo2":-89.0444,"dy":0.0017,"dx":0.0017,"nx":28,"ny":28,"refTime":"2024-06-22T03:00:00:Z","depth":"2","parameterNumber":2,"parameterNumberName":"U-component_of_CURRENTS"},"data":[0,0,0,0,0,0,0,0,0,0,0,0,0,0,0,0,0,0,0,0,0,0,0,0,0,0,0,0,0,0,0,0,0,0,0,0,0,0,0,0,0,0,0,0,0,0,0,0,0,0,0,0,0,0,0,0,0,0,0.2535,0.2537,0,0.264,0.2641,0.2642,0.2611,0.2609,0.2607,0.2606,0.26,0.2601,0.2603,0,0,0,0,0,0,0,0,0,0,0,0,0,0.2353,0.2355,0.2535,0.2537,0.2539,0.264,0.2641,0.2642,0.2611,0.2609,0.2607,0.2605,0.26,0.2601,0.2603,0,0,0,0,0,0,0,0,0,0,0,0,0,0.2437,0.2356,0.2535,0.254,0.2541,0.264,0.2641,0.2642,0.2611,0.2609,0.2606,0.2604,0.2599,0.2601,0.2603,0.2666,0,0,0.261,0.2611,0,0,0,0,0,0,0,0,0.2432,0.2443,0.2537,0.2539,0.2542,0.2615,0.2575,0.2647,0.2612,0.2579,0.2606,0.2603,0.26,0.2602,0.2621,0.2666,0.2666,0.261,0.2611,0.2612,0.2613,0,0,0,0,0,0,0,0.2426,0.2438,0.2571,0.2539,0.2542,0.2552,0.256,0.2589,0.2596,0.2581,0.2581,0.2602,0.26,0.2619,0.262,0.2666,0.261,0.2612,0.2613,0.2614,0.2747,0.2749,0,0,0,0,0,0,0.2426,0.2433,0.2568,0.2575,0.2486,0.2558,0.2567,0.2589,0.2598,0.26,0.2604,0.2601,0.2617,0.2618,0.262,0.268,0.2612,0.2614,0.2615,0.2745,0.2748,0.275,0,0,0,0,0,0,0.2421,0.2437,0.2564,0.251,0.2528,0.2564,0.2589,0.2593,0.2606,0.2618,0.2615,0.2613,0.2615,0.2617,0.2647,0.268,0.2615,0.2617,0.2742,0.2746,0.2749,0.2809,0,0,0,0,0,0,0.2415,0.2434,0.2452,0.251,0.2531,0.2619,0.2593,0.2597,0.2626,0.2622,0.2626,0.2623,0.2613,0.2644,0.2649,0.2681,0.2619,0.2739,0.2744,0.2748,0.2805,0.2815,0.2823,0,0,0,0,0,0.2409,0.2441,0.2452,0.2469,0.2554,0.2621,0.2632,0.2645,0.2629,0.2645,0.2647,0.2622,0.2674,0.2648,0.2653,0.2687,0.2737,0.2743,0.2748,0.28,0.2813,0.2823,0,0,0,0,0,0,0.2376,0.2443,0.2456,0.2509,0.2562,0.2618,0.2643,0.2653,0.2673,0.2664,0.2654,0.2654,0.269,0.269,0.2661,0.274,0.2702,0.2708,0.274,0.2752,0.2761,0.275,0.262,0,0,0,0,0,0.2381,0.2414,0.2485,0.2526,0.2555,0.2601,0.263,0.2646,0.2676,0.2681,0.2688,0.27,0.2723,0.2734,0.2752,0.2803,0.2804,0.2829,0.2838,0.2846,0.2843,0.2898,0.2911,0.2767,0.2767,0.2767,0,0,0.238,0.2423,0.2442,0.2521,0.2561,0.2614,0.261,0.2664,0.27,0.268,0.2721,0.2732,0.2744,0.2792,0.2809,0.279,0.2888,0.2852,0.2858,0.2852,0.2905,0.2919,0.2931,0.277,0.277,0.2769,0,0,0.2396,0.2436,0.2469,0.2521,0.2594,0.2628,0.2644,0.2709,0.2725,0.2775,0.2772,0.2803,0.2837,0.286,0.2872,0.2949,0.2933,0.2959,0.3,0.3054,0.3066,0.3076,0.3092,0.3103,0.2966,0.2966,0.2966,0,0.2386,0.2445,0.249,0.2545,0.2585,0.2633,0.2679,0.2723,0.2786,0.2808,0.2786,0.2856,0.2868,0.2931,0.2959,0.2969,0.2985,0.2953,0.3065,0.3075,0.3085,0.3098,0.311,0.297,0.2969,0.2969,0.2969,0,0.2436,0.2484,0.2513,0.2588,0.2636,0.2689,0.2758,0.2808,0.2825,0.2857,0.2913,0.2937,0.2975,0.2995,0.2999,0.3086,0.307,0.3066,0.3031,0.3103,0.3113,0.3124,0.2975,0.2974,0.2973,0.2972,0,0,0.2394,0.2518,0.2525,0.2562,0.2661,0.2703,0.2782,0.2858,0.2906,0.2947,0.2996,0.3047,0.3057,0.3074,0.3095,0.3144,0.3231,0.3141,0.3143,0.3146,0.3332,0.3336,0.3348,0.3254,0.3256,0.3258,0.3309,0,0.2409,0.25,0.256,0.2635,0.2683,0.2759,0.2826,0.2901,0.2953,0.3021,0.3051,0.3107,0.309,0.3124,0.3169,0.3224,0.3264,0.3215,0.3271,0.3271,0.3259,0.3363,0.3137,0.3166,0.332,0.3321,0.3323,0,0.2432,0.2486,0.2566,0.2657,0.2684,0.2737,0.2844,0.2917,0.303,0.3072,0.313,0.3163,0.3247,0.322,0.3318,0.3292,0.3317,0.334,0.3343,0.3331,0.3298,0.3122,0.318,0.3341,0.3339,0.3338,0.3337,0,0.2377,0.248,0.2536,0.2575,0.2698,0.2741,0.2803,0.2923,0.299,0.312,0.3174,0.3251,0.331,0.3355,0.3411,0.3381,0.3507,0.3467,0.348,0.3478,0.3287,0.3266,0.3532,0.3532,0.3532,0.3532,0.3532,0,0.2365,0.2408,0.2515,0.2553,0.2608,0.2705,0.2785,0.2878,0.3004,0.3082,0.3192,0.3265,0.3355,0.3435,0.345,0.3514,0.3541,0.3507,0.3511,0.3303,0.3284,0.3431,0.3419,0.3534,0.3534,0.3533,0.3533,0,0.2306,0.2388,0.2469,0.258,0.2594,0.2649,0.276,0.2824,0.2967,0.308,0.3129,0.3302,0.3427,0.3498,0.3597,0.3578,0.3629,0.3637,0.3378,0.3353,0.3539,0.3529,0.3645,0.3646,0.3647,0.3648,0.3649,0,0.2291,0.2323,0.2456,0.2485,0.2532,0.2602,0.2641,0.2787,0.2859,0.3088,0.313,0.3321,0.3424,0.3581,0.3624,0.3673,0.3683,0.3467,0.3377,0.3568,0.356,0.3549,0.3538,0.3128,0.3125,0.3122,0.3119,0,0.2243,0.2311,0.2365,0.2428,0.2475,0.2523,0.2591,0.2638,0.2822,0.2935,0.3094,0.3208,0.3418,0.3415,0.3531,0.351,0.3445,0.3411,0.3694,0.3159,0.3092,0.308,0.3084,0.3092,0.3095,0.3097,0.3098,0.31,0.2197,0.2232,0.231,0.2352,0.2401,0.2428,0.2429,0.2522,0.2622,0.2768,0.2945,0.3057,0.3181,0.3269,0.3209,0.3184,0.3398,0.3236,0.3239,0.3248,0.3203,0.3145,0.3143,0.3146,0.3148,0.315,0.3152,0,0.2151,0.219,0.2207,0.227,0.2262,0.2338,0.2373,0.2363,0.2427,0.262,0.2747,0.265,0.2729,0.283,0.2786,0.2831,0.2733,0.2693,0.2536,0.2571,0.2599,0.2513,0.2274,0.227,0.2266,0.2263,0,0,0.2127,0.2135,0.2133,0.2102,0.2134,0.211,0.2113,0.2125,0.2226,0.2272,0.2351,0.2622,0.2797,0.249,0.2494,0.2374,0.2428,0.2286,0.3013,0.2866,0.2889,0.2965,0.2882,0,0,0,0,0]},{"header":{"parameterUnit":"m.s-1","parameterCategory":2,"la1":30.2991,"la2":30.254,"lo1":-89.0895,"lo2":-89.0444,"dy":0.0017,"dx":0.0017,"nx":28,"ny":28,"refTime":"2024-06-22T03:00:00:Z","depth":"2","parameterNumber":3,"parameterNumberName":"V-component_of_CURRENTS"},"data":[0,0,0,0,0,0,0,0,0,0,0,0,0,0,0,0,0,0,0,0,0,0,0,0,0,0,0,0,0,0,0,0,0,0,0,0,0,0,0,0,0,0,0,0,0,0,0,0,0,0,0,0,0,0,0,0,0,0,-0.0327,-0.0328,0,-0.0408,-0.0408,-0.0409,-0.0444,-0.0444,-0.0444,-0.0444,-0.0512,-0.0514,-0.0516,0,0,0,0,0,0,0,0,0,0,0,0,0,-0.0262,-0.0263,-0.0327,-0.0328,-0.0329,-0.0407,-0.0408,-0.0409,-0.0444,-0.0444,-0.0444,-0.0444,-0.0512,-0.0514,-0.0516,0,0,0,0,0,0,0,0,0,0,0,0,0,-0.0309,-0.0263,-0.0327,-0.0357,-0.0361,-0.0407,-0.0408,-0.0409,-0.0444,-0.0444,-0.0444,-0.0444,-0.0511,-0.0513,-0.0516,-0.0531,0,0,-0.0524,-0.0525,0,0,0,0,0,0,0,0,-0.0306,-0.0311,-0.0352,-0.0355,-0.036,-0.0417,-0.0411,-0.045,-0.0444,-0.0411,-0.0444,-0.0444,-0.048,-0.0486,-0.0498,-0.0534,-0.0537,-0.0524,-0.0526,-0.0527,-0.0528,0,0,0,0,0,0,0,-0.0303,-0.0308,-0.0357,-0.0353,-0.0358,-0.0388,-0.0394,-0.0418,-0.0442,-0.0413,-0.0417,-0.0429,-0.0482,-0.0496,-0.05,-0.0538,-0.0524,-0.0527,-0.0528,-0.0529,-0.0577,-0.0576,0,0,0,0,0,0,-0.0294,-0.0305,-0.0354,-0.036,-0.0335,-0.0389,-0.0395,-0.0397,-0.0443,-0.045,-0.0428,-0.043,-0.0491,-0.0497,-0.0503,-0.0491,-0.0527,-0.053,-0.0531,-0.0577,-0.0577,-0.0576,0,0,0,0,0,0,-0.0292,-0.0297,-0.0351,-0.0336,-0.0345,-0.0389,-0.0392,-0.0399,-0.0405,-0.0454,-0.0461,-0.0427,-0.0491,-0.0499,-0.0515,-0.0496,-0.0531,-0.0533,-0.0578,-0.0577,-0.0577,-0.049,0,0,0,0,0,0,-0.0289,-0.0295,-0.0286,-0.0335,-0.0346,-0.0362,-0.0392,-0.04,-0.0414,-0.0416,-0.0455,-0.0462,-0.0492,-0.0511,-0.0518,-0.05,-0.0535,-0.0578,-0.0577,-0.0577,-0.0493,-0.0486,-0.048,0,0,0,0,0,-0.0287,-0.0264,-0.0285,-0.0291,-0.0334,-0.0362,-0.0369,-0.04,-0.0413,-0.0407,-0.0437,-0.0461,-0.0512,-0.0512,-0.0521,-0.0503,-0.0578,-0.0577,-0.0577,-0.0496,-0.0487,-0.0481,0,0,0,0,0,0,-0.0216,-0.0268,-0.0291,-0.0282,-0.0316,-0.0368,-0.0364,-0.0392,-0.0412,-0.041,-0.0457,-0.0465,-0.0473,-0.0503,-0.0503,-0.0517,-0.0549,-0.055,-0.0484,-0.0477,-0.0471,-0.0436,-0.0537,0,0,0,0,0,-0.0202,-0.0204,-0.0259,-0.0249,-0.0265,-0.0315,-0.0328,-0.0351,-0.0382,-0.0391,-0.0421,-0.0453,-0.0478,-0.0488,-0.0516,-0.0521,-0.0552,-0.0517,-0.0511,-0.0505,-0.0484,-0.0524,-0.0519,-0.0574,-0.0574,-0.0574,0,0,-0.0171,-0.02,-0.02,-0.0236,-0.0265,-0.0278,-0.0321,-0.0332,-0.0331,-0.0395,-0.0391,-0.0431,-0.0476,-0.0483,-0.0489,-0.0503,-0.0508,-0.0504,-0.0499,-0.048,-0.0523,-0.0518,-0.0513,-0.0573,-0.0574,-0.0574,0,0,-0.0121,-0.0138,-0.0134,-0.0158,-0.02,-0.0234,-0.0234,-0.0282,-0.0287,-0.0296,-0.0343,-0.0368,-0.0403,-0.0433,-0.0453,-0.043,-0.0475,-0.0442,-0.0378,-0.0418,-0.0413,-0.041,-0.0443,-0.0443,-0.0437,-0.0436,-0.0436,0,-0.0083,-0.0085,-0.0133,-0.0138,-0.0148,-0.021,-0.0206,-0.0221,-0.0263,-0.0261,-0.0278,-0.0337,-0.0375,-0.0393,-0.0381,-0.0413,-0.0442,-0.04,-0.0408,-0.0405,-0.0403,-0.0438,-0.0439,-0.0432,-0.0433,-0.0433,-0.0433,0,-0.0048,-0.0041,-0.0035,-0.0067,-0.0085,-0.0082,-0.0126,-0.0121,-0.014,-0.0171,-0.0181,-0.0238,-0.0272,-0.0292,-0.0324,-0.033,-0.0358,-0.0396,-0.0421,-0.0391,-0.0431,-0.0434,-0.0426,-0.0428,-0.0429,-0.043,0,0,0.0014,-0.0006,-0.0004,0.0002,-0.0043,-0.005,-0.0036,-0.005,-0.0027,-0.0071,-0.0053,-0.0108,-0.0149,-0.0174,-0.0231,-0.0259,-0.0272,-0.0306,-0.031,-0.0328,-0.0353,-0.0367,-0.0372,-0.0312,-0.0312,-0.0312,-0.0388,0,0.0056,0.0075,0.0047,0.0074,0.008,0.0047,0.0068,0.0052,0.0038,0.0044,-0.002,-0.0032,-0.0104,-0.011,-0.0155,-0.0243,-0.0274,-0.0247,-0.0388,-0.0392,-0.0399,-0.0373,-0.0335,-0.0398,-0.0391,-0.0391,-0.0392,0,0.0088,0.01,0.0134,0.0157,0.0157,0.0171,0.0197,0.021,0.0195,0.0187,0.015,0.0091,0.0037,-0.002,-0.0154,-0.0133,-0.0224,-0.0295,-0.0301,-0.034,-0.041,-0.0428,-0.0404,-0.0397,-0.0396,-0.0396,-0.0396,0,0.0141,0.0163,0.0199,0.0203,0.0212,0.0249,0.0262,0.0261,0.0295,0.0281,0.0297,0.0198,0.017,0.0041,-0.0113,-0.013,-0.0256,-0.031,-0.041,-0.0413,-0.0419,-0.0422,-0.039,-0.039,-0.039,-0.039,-0.039,0,0.0186,0.0221,0.024,0.0263,0.0336,0.0318,0.0397,0.0405,0.0425,0.0471,0.0376,0.0388,0.0189,0.0085,-0.0071,-0.0242,-0.0235,-0.0382,-0.0427,-0.0389,-0.0388,-0.042,-0.0422,-0.0393,-0.0392,-0.0391,-0.0391,0,0.0231,0.024,0.0305,0.0347,0.0364,0.0427,0.0493,0.0547,0.0557,0.062,0.0623,0.053,0.0399,0.0192,-0.0016,-0.0174,-0.0344,-0.0407,-0.0343,-0.0378,-0.0486,-0.0484,-0.0526,-0.0527,-0.0528,-0.0528,-0.0529,0,0.0254,0.0285,0.037,0.0421,0.045,0.053,0.0584,0.0617,0.0679,0.0713,0.0752,0.0651,0.0596,0.0276,-0.0018,-0.0294,-0.0334,-0.0438,-0.0465,-0.0457,-0.0497,-0.0493,-0.0489,-0.0446,-0.0446,-0.0446,-0.0446,0,0.0306,0.0344,0.0392,0.0501,0.0579,0.0665,0.0753,0.0818,0.087,0.0924,0.097,0.0935,0.0642,0.0364,-0.0017,-0.0201,-0.0395,-0.0444,-0.0452,-0.0413,-0.0387,-0.0425,-0.0423,-0.0445,-0.0445,-0.0445,-0.0445,-0.0445,0.0351,0.0408,0.0483,0.0582,0.068,0.0798,0.088,0.097,0.1083,0.1181,0.1136,0.1115,0.0782,0.0315,-0.0036,-0.0392,-0.0384,-0.05,-0.0498,-0.0497,-0.0469,-0.0446,-0.0509,-0.051,-0.051,-0.0511,-0.0511,0,0.0417,0.0469,0.055,0.0683,0.0792,0.0845,0.0984,0.1069,0.1212,0.1306,0.1354,0.109,0.0772,0.0401,-0.0133,-0.0461,-0.0484,-0.0548,-0.051,-0.0508,-0.0507,-0.0479,-0.0522,-0.0524,-0.0525,-0.0525,0,0,0.0455,0.0539,0.0571,0.075,0.0848,0.1013,0.1105,0.1228,0.133,0.1425,0.1445,0.1391,0.0928,0.0545,0.0086,-0.022,-0.0282,-0.027,-0.0223,-0.0122,-0.0117,-0.044,-0.0389,0,0,0,0,0]}],[{"header":{"parameterUnit":"m.s-1","parameterCategory":2,"la1":30.2991,"la2":30.254,"lo1":-89.0895,"lo2":-89.0444,"dy":0.0017,"dx":0.0017,"nx":28,"ny":28,"refTime":"2024-06-22T03:00:00:Z","depth":"4","parameterNumber":2,"parameterNumberName":"U-component_of_CURRENTS"},"data":[0,0,0,0,0,0,0,0,0,0,0,0,0,0,0,0,0,0,0,0,0,0,0,0,0,0,0,0,0,0,0,0,0,0,0,0,0,0,0,0,0,0,0,0,0,0,0,0,0,0,0,0,0,0,0,0,0,0,0.1427,0.1428,0,0.1497,0.1497,0.1498,0.1558,0.1559,0.1559,0.156,0.1659,0.1661,0.1663,0,0,0,0,0,0,0,0,0,0,0,0,0,0.1318,0.132,0.1427,0.1428,0.1428,0.1496,0.1497,0.1498,0.1558,0.1559,0.1559,0.156,0.1659,0.1661,0.1664,0,0,0,0,0,0,0,0,0,0,0,0,0,0.1375,0.1321,0.1427,0.1466,0.147,0.1496,0.1497,0.1499,0.1558,0.1559,0.156,0.1561,0.1658,0.1661,0.1664,0.1664,0,0,0.1673,0.1675,0,0,0,0,0,0,0,0,0.1371,0.1379,0.1459,0.1463,0.1468,0.1519,0.1496,0.1555,0.1557,0.1525,0.156,0.1561,0.1614,0.1621,0.1632,0.1669,0.1673,0.1674,0.1676,0.1677,0.1678,0,0,0,0,0,0,0,0.1368,0.1376,0.1455,0.146,0.1466,0.1471,0.1481,0.1507,0.1564,0.1528,0.1532,0.1539,0.1617,0.1629,0.1635,0.1674,0.1674,0.1676,0.1678,0.1679,0.1818,0.182,0,0,0,0,0,0,0.1359,0.1372,0.1452,0.1457,0.1421,0.1472,0.1483,0.1502,0.1563,0.1573,0.1538,0.1542,0.1623,0.1631,0.1639,0.1734,0.1677,0.168,0.1682,0.1816,0.1818,0.182,0,0,0,0,0,0,0.1357,0.1366,0.145,0.1415,0.1426,0.1473,0.1494,0.1503,0.1549,0.1571,0.1582,0.1579,0.1624,0.1634,0.1701,0.1735,0.1681,0.1684,0.1814,0.1817,0.1819,0.1865,0,0,0,0,0,0,0.1353,0.1365,0.139,0.1415,0.1428,0.1491,0.1494,0.1504,0.1549,0.1555,0.1609,0.1617,0.1626,0.1696,0.1704,0.1738,0.1686,0.1812,0.1815,0.1818,0.1861,0.1869,0.1876,0,0,0,0,0,0.1349,0.1377,0.1391,0.1401,0.1456,0.1492,0.1501,0.1536,0.1551,0.1579,0.162,0.1617,0.1723,0.1701,0.1709,0.1745,0.181,0.1814,0.1818,0.1858,0.1868,0.1876,0,0,0,0,0,0,0.1348,0.1386,0.1402,0.1442,0.1476,0.1503,0.1534,0.1554,0.1607,0.1622,0.1643,0.1655,0.1722,0.173,0.1705,0.1795,0.1765,0.1771,0.1793,0.1802,0.1809,0.1817,0.1689,0,0,0,0,0,0.1356,0.1391,0.1421,0.146,0.1477,0.1511,0.1535,0.1558,0.1598,0.1624,0.1663,0.1703,0.1739,0.177,0.1801,0.1853,0.1871,0.1882,0.1889,0.1895,0.1909,0.1952,0.1965,0.1834,0.1834,0.1834,0,0,0.1364,0.1393,0.1413,0.1462,0.1492,0.1526,0.153,0.1576,0.1614,0.1625,0.1704,0.1732,0.1759,0.1818,0.1849,0.1835,0.1946,0.19,0.1905,0.1916,0.1958,0.1971,0.1982,0.1836,0.1836,0.1836,0,0,0.1388,0.1427,0.1458,0.149,0.1538,0.1559,0.1579,0.1625,0.1661,0.1725,0.1744,0.1798,0.1858,0.1886,0.1904,0.1971,0.198,0.1983,0.2032,0.2074,0.2085,0.2095,0.2151,0.2166,0.199,0.199,0.199,0,0.1397,0.1443,0.1474,0.151,0.154,0.1577,0.1613,0.1651,0.1718,0.1751,0.1761,0.1865,0.1888,0.1955,0.1984,0.1988,0.202,0.1993,0.2083,0.2093,0.2102,0.2157,0.2172,0.1993,0.1992,0.1992,0.1992,0,0.1433,0.148,0.1504,0.1563,0.1599,0.164,0.1684,0.1738,0.1782,0.1814,0.1901,0.1941,0.2004,0.2018,0.2026,0.2106,0.2112,0.2082,0.2057,0.2118,0.2173,0.2188,0.1996,0.1995,0.1995,0.1994,0,0,0.1425,0.151,0.1524,0.156,0.163,0.1662,0.1731,0.1795,0.1852,0.1916,0.1987,0.2055,0.2084,0.2107,0.2127,0.2169,0.2266,0.2165,0.2166,0.2216,0.2384,0.2259,0.2264,0.2254,0.2257,0.2259,0.2402,0,0.1446,0.1517,0.1557,0.1633,0.1669,0.1726,0.1786,0.1851,0.1915,0.1996,0.2041,0.212,0.2114,0.2163,0.2203,0.2255,0.2306,0.2231,0.2323,0.2327,0.2202,0.2276,0.2266,0.2413,0.2417,0.2419,0.2421,0,0.146,0.151,0.1579,0.1671,0.1694,0.1752,0.1858,0.1917,0.202,0.2071,0.2149,0.2191,0.2287,0.2259,0.2383,0.2341,0.2376,0.2402,0.2407,0.2283,0.2228,0.2337,0.2448,0.2446,0.2444,0.2442,0.2441,0,0.1425,0.1525,0.1582,0.1614,0.1719,0.1777,0.1846,0.1949,0.2005,0.2137,0.2198,0.2294,0.2375,0.2424,0.2493,0.2454,0.2615,0.2556,0.2478,0.2471,0.2518,0.2506,0.2636,0.2636,0.2636,0.2635,0.2635,0,0.1411,0.1465,0.1583,0.1615,0.1698,0.1781,0.1879,0.196,0.2074,0.2149,0.2246,0.2322,0.2423,0.2516,0.2541,0.2571,0.266,0.2509,0.25,0.2537,0.2526,0.253,0.2516,0.2641,0.264,0.2639,0.2638,0,0.1353,0.1429,0.1503,0.1633,0.168,0.1743,0.1884,0.1948,0.2079,0.2185,0.2234,0.2383,0.2512,0.2597,0.2707,0.2637,0.2671,0.2657,0.2736,0.2726,0.2487,0.2474,0.2572,0.2569,0.2566,0.2564,0.2562,0,0.1325,0.1359,0.1498,0.1543,0.1611,0.1719,0.1786,0.1929,0.1995,0.2204,0.2242,0.2425,0.2511,0.2572,0.2665,0.272,0.2681,0.2679,0.2535,0.25,0.2483,0.2473,0.2464,0.2558,0.2557,0.2556,0.2556,0,0.1268,0.1329,0.1388,0.1481,0.1566,0.1642,0.1761,0.1789,0.196,0.21,0.2202,0.2276,0.2423,0.2499,0.2577,0.2596,0.266,0.2649,0.2653,0.2517,0.2484,0.2467,0.2461,0.2546,0.2548,0.2549,0.2549,0,0.1226,0.1248,0.1333,0.1404,0.1494,0.1542,0.1615,0.1708,0.1787,0.2009,0.2049,0.2244,0.2404,0.2441,0.2507,0.2529,0.2472,0.2362,0.2379,0.2391,0.2263,0.2189,0.2173,0,0,0,0,0,0.1172,0.1189,0.125,0.1317,0.1398,0.1459,0.1584,0.1659,0.1825,0.1846,0.1937,0.2062,0.2171,0.227,0.2257,0.2433,0.2483,0.2406,0.2364,0.2494,0.2505,0.2369,0,0,0,0,0,0,0.1135,0.1185,0.1215,0.1229,0.1258,0.1341,0.1415,0.1531,0.1548,0.1724,0.1795,0.1938,0.2076,0.2164,0.2218,0.225,0.2181,0.2529,0.2523,0.2488,0.2498,0.2506,0.2371,0,0,0,0,0]},{"header":{"parameterUnit":"m.s-1","parameterCategory":2,"la1":30.2991,"la2":30.254,"lo1":-89.0895,"lo2":-89.0444,"dy":0.0017,"dx":0.0017,"nx":28,"ny":28,"refTime":"2024-06-22T03:00:00:Z","depth":"4","parameterNumber":3,"parameterNumberName":"V-component_of_CURRENTS"},"data":[0,0,0,0,0,0,0,0,0,0,0,0,0,0,0,0,0,0,0,0,0,0,0,0,0,0,0,0,0,0,0,0,0,0,0,0,0,0,0,0,0,0,0,0,0,0,0,0,0,0,0,0,0,0,0,0,0,0,-0.0018,-0.0018,0,-0.0095,-0.0096,-0.0097,-0.0138,-0.0138,-0.0138,-0.0138,-0.0236,-0.0238,-0.0241,0,0,0,0,0,0,0,0,0,0,0,0,0,0.0091,0.0089,-0.0018,-0.0018,-0.0019,-0.0095,-0.0096,-0.0097,-0.0138,-0.0138,-0.0138,-0.0138,-0.0235,-0.0238,-0.0241,0,0,0,0,0,0,0,0,0,0,0,0,0,0.0032,0.0089,-0.0017,-0.0049,-0.0052,-0.0095,-0.0096,-0.0097,-0.0138,-0.0138,-0.0138,-0.0138,-0.0234,-0.0238,-0.0241,-0.0264,0,0,-0.0253,-0.0255,0,0,0,0,0,0,0,0,0.0035,0.0028,-0.0043,-0.0047,-0.0051,-0.0107,-0.0094,-0.0154,-0.0138,-0.0106,-0.0138,-0.0138,-0.0194,-0.0201,-0.0216,-0.0268,-0.0272,-0.0253,-0.0256,-0.0257,-0.0258,0,0,0,0,0,0,0,0.0039,0.0031,-0.0049,-0.0044,-0.0049,-0.006,-0.0069,-0.0105,-0.0149,-0.0109,-0.0112,-0.012,-0.0196,-0.0212,-0.0218,-0.0274,-0.0253,-0.0257,-0.0259,-0.026,-0.0363,-0.0364,0,0,0,0,0,0,0.0049,0.0034,-0.0046,-0.0051,-0.0007,-0.0062,-0.0072,-0.0089,-0.0149,-0.0157,-0.012,-0.0121,-0.0205,-0.0214,-0.0222,-0.0258,-0.0257,-0.0261,-0.0263,-0.0363,-0.0364,-0.0364,0,0,0,0,0,0,0.0052,0.0042,-0.0043,-0.0009,-0.0021,-0.0064,-0.0083,-0.009,-0.0112,-0.0157,-0.0166,-0.0133,-0.0206,-0.0217,-0.0259,-0.0262,-0.0263,-0.0266,-0.0363,-0.0363,-0.0364,-0.0327,0,0,0,0,0,0,0.0055,0.0044,0.0034,-0.0009,-0.0022,-0.007,-0.0083,-0.0092,-0.0116,-0.0119,-0.0172,-0.018,-0.0207,-0.0253,-0.0263,-0.0267,-0.0269,-0.0362,-0.0363,-0.0364,-0.0327,-0.0326,-0.0325,0,0,0,0,0,0.0059,0.0042,0.0033,0.0024,-0.0035,-0.007,-0.0079,-0.0109,-0.0116,-0.0128,-0.0162,-0.0179,-0.0265,-0.0257,-0.0268,-0.0274,-0.0362,-0.0363,-0.0364,-0.0328,-0.0326,-0.0325,0,0,0,0,0,0,0.0074,0.0035,0.0025,-0.0006,-0.0034,-0.0077,-0.0092,-0.011,-0.0146,-0.0149,-0.0189,-0.0201,-0.0239,-0.0263,-0.0253,-0.0306,-0.0315,-0.0318,-0.0284,-0.0283,-0.0281,-0.026,-0.0272,0,0,0,0,0,0.0076,0.0057,0.002,-0.0005,-0.0017,-0.0053,-0.0071,-0.009,-0.0126,-0.0142,-0.0179,-0.0216,-0.0252,-0.0272,-0.0309,-0.0339,-0.0356,-0.0349,-0.0348,-0.0347,-0.0337,-0.0369,-0.0369,-0.0367,-0.0367,-0.0367,0,0,0.0075,0.0051,0.004,-0.0001,-0.0025,-0.0042,-0.0065,-0.0092,-0.0106,-0.0148,-0.0182,-0.0217,-0.026,-0.0294,-0.0313,-0.0314,-0.0357,-0.0348,-0.0346,-0.0338,-0.037,-0.037,-0.037,-0.0368,-0.0368,-0.0368,0,0,0.007,0.0044,0.0032,0.0013,-0.0019,-0.004,-0.0046,-0.0088,-0.0106,-0.0142,-0.0173,-0.0208,-0.0266,-0.0293,-0.0314,-0.0329,-0.0352,-0.0342,-0.0316,-0.0346,-0.0346,-0.0347,-0.0367,-0.037,-0.0338,-0.0338,-0.0338,0,0.0071,0.0051,0.0022,0.001,0.0,-0.0035,-0.0042,-0.007,-0.012,-0.0129,-0.0148,-0.0222,-0.0263,-0.0293,-0.0299,-0.0325,-0.0341,-0.0316,-0.0343,-0.0344,-0.0344,-0.0366,-0.0369,-0.0336,-0.0336,-0.0337,-0.0337,0,0.0061,0.0049,0.004,0.0018,0.0003,-0.0011,-0.0042,-0.0061,-0.0085,-0.0108,-0.0147,-0.0202,-0.0238,-0.0262,-0.0287,-0.0311,-0.0321,-0.0339,-0.0341,-0.0342,-0.0365,-0.0369,-0.0334,-0.0334,-0.0335,-0.0335,0,0,0.0057,0.0039,0.0038,0.0044,0.0012,0.0002,-0.0017,-0.0038,-0.0037,-0.0092,-0.0098,-0.0168,-0.0189,-0.0214,-0.0252,-0.0281,-0.0309,-0.0307,-0.0309,-0.0317,-0.0367,-0.0356,-0.036,-0.033,-0.033,-0.0331,-0.038,0,0.0063,0.0058,0.0044,0.0048,0.0049,0.0026,0.0018,-0.0004,-0.0028,-0.0045,-0.0098,-0.0124,-0.0173,-0.0185,-0.0225,-0.0286,-0.0317,-0.0293,-0.0375,-0.0377,-0.0359,-0.0363,-0.0332,-0.0383,-0.0384,-0.0385,-0.0385,0,0.0063,0.0065,0.0073,0.0085,0.0084,0.0082,0.0084,0.0073,0.0042,0.0025,-0.0009,-0.0053,-0.0104,-0.0145,-0.0245,-0.0226,-0.0291,-0.0342,-0.0345,-0.0348,-0.0372,-0.0385,-0.0392,-0.0392,-0.0391,-0.0391,-0.039,0,0.0089,0.009,0.0106,0.0106,0.0105,0.0114,0.0115,0.0098,0.011,0.0077,0.0084,0.0005,-0.0018,-0.0116,-0.0226,-0.0236,-0.0332,-0.0361,-0.0412,-0.0412,-0.0422,-0.0422,-0.043,-0.043,-0.043,-0.0429,-0.0429,0,0.0105,0.0119,0.0125,0.0134,0.017,0.0155,0.0189,0.0179,0.0182,0.0214,0.013,0.0136,-0.0011,-0.0086,-0.0201,-0.031,-0.0315,-0.0402,-0.0423,-0.0407,-0.0404,-0.0425,-0.0424,-0.0431,-0.0431,-0.0431,-0.043,0,0.0129,0.0129,0.0155,0.017,0.0185,0.0211,0.0253,0.0279,0.0272,0.0314,0.0311,0.0239,0.0142,-0.0008,-0.0161,-0.0257,-0.0378,-0.0417,-0.0374,-0.0393,-0.0445,-0.0442,-0.0479,-0.0479,-0.0479,-0.0479,-0.0479,0,0.0139,0.0155,0.0191,0.0223,0.0235,0.0277,0.0315,0.0326,0.0366,0.0386,0.0416,0.0335,0.0269,0.0076,-0.0106,-0.0324,-0.0361,-0.0428,-0.0454,-0.0433,-0.045,-0.0446,-0.0443,-0.0479,-0.0479,-0.0479,-0.0479,0,0.0166,0.0179,0.0205,0.0271,0.0319,0.0379,0.0436,0.0475,0.0505,0.0501,0.0524,0.0413,0.0306,0.0114,-0.0058,-0.022,-0.039,-0.0429,-0.043,-0.0456,-0.0434,-0.045,-0.0446,-0.0479,-0.0479,-0.0479,-0.0479,0,0.0191,0.0217,0.0259,0.0319,0.0389,0.0468,0.0488,0.0547,0.0586,0.0609,0.0617,0.0488,0.0409,0.0169,0.0012,-0.015,-0.0202,-0.0265,-0.0276,-0.0278,-0.0218,-0.0161,-0.0133,0,0,0,0,0,0.0213,0.0249,0.0307,0.0378,0.0451,0.0496,0.057,0.0586,0.062,0.0658,0.0645,0.0549,0.0329,0.0224,0.0069,-0.0024,-0.0258,-0.0217,-0.0342,-0.0479,-0.0479,-0.0443,0,0,0,0,0,0,0.0228,0.028,0.031,0.0422,0.0482,0.0571,0.0622,0.0643,0.0662,0.0671,0.0561,0.0509,0.0287,0.0431,0.007,0.0017,-0.0086,-0.0324,-0.0328,-0.0479,-0.0479,-0.0479,-0.0442,0,0,0,0,0]}]]